Content
SEND FEEDBACK

Daily
Averages
Monthly
Summary
United States of America

YELLOWSTONE NATIONAL PARK, WYOMING


Home > North America > United States > Wyoming
Elevation: 7938 feet     Latitude: 44 34N     Longitude: 110 24W

WEATHER
 
SELECT A DAY
Number of Records: 295,393;   Date Range: 1/1/95 - 8/12/14
 
SHARE

PRINT THIS DATA

[ ← Previous Day ]
WEATHER ALMANAC - JANUARY 14, 2013
[ Next Day → ]
[ °C ]   °F
Weather ElementAverageHighLow
Temperature-10.2 °F (2:56 pm)-26 °F (7:56 am)
Dewpoint-15.9 °F-6 °F (2:56 pm)-31 °F (7:56 am)
Humidity76.2 %82 % (9:56 am)72 % (12:56 pm)
Barometer30.49 in30.60 in (7:56 pm)30.37 in (1:56 pm)
Wind Speed0.2 mph3.5 mph (10:56 am)
Weather ElementAverage
Wind DirectionN (5.2 °)

Weather ElementTotal
Precipitation0.10 in
Heating Degree Days78 (Base 65)
Averaged from 23 records on January 14, 2013
WEATHER CONDITIONS BREAKOUT
WIND DIRECTION BREAKOUT
WEATHER BY HOUR - JANUARY 14, 2013
[ °C ]   °F
Local TimeTemperatureDewpointHumidityBarometerVisibilityWind DirectionWind SpeedGust SpeedPrecipitationEventsConditions
1:56 AM-9.0 °F-14.1 °F79 %30.40 inCalm
2:56 AM-9.9 °F-15.0 °F78 %30.40 inCalm
3:56 AM-14.1 °F-20.0 °F75 %30.42 inCalm
4:56 AM-18.9 °F-24.0 °F78 %30.45 inCalm
5:56 AM-23.1 °F-27.9 °F78 %30.50 inCalm
6:56 AM-24.0 °F-29.0 °F77 %30.52 inCalm
7:56 AM-26.0 °F-31.0 °F77 %30.55 inCalm
8:56 AM-23.1 °F-27.9 °F78 %30.56 inCalm
9:56 AM-14.1 °F-18.0 °F82 %30.49 inCalm
10:56 AM-11.9 °F-18.0 °F74 %30.47 inESE (120°)3.5 mph
11:56 AM-9.9 °F-16.1 °F74 %30.45 inCalm
12:56 PM-7.1 °F-14.1 °F72 %30.40 inCalm
1:56 PM-2.9 °F-9.9 °F72 %30.37 inCalm
2:56 PM0.0 °F-6.0 °F76 %30.37 inCalm0.01 in
3:56 PM-2.0 °F-8.0 °F76 %30.43 inCalm0.01 in
4:56 PM-2.9 °F-9.9 °F72 %30.50 inCalm
5:56 PM-4.0 °F-11.0 °F72 %30.55 inCalm0.01 in
6:56 PM-5.1 °F-11.0 °F76 %30.56 inCalm0.01 in
7:56 PM-5.1 °F-11.0 °F76 %30.60 inCalm0.01 in
8:56 PM-5.1 °F-11.0 °F76 %30.59 inCalm
9:56 PM-6.0 °F-11.0 °F79 %30.55 inCalm0.02 in
10:56 PM-5.1 °F-11.0 °F76 %30.54 inCalm0.02 in
11:56 PM-5.1 °F-9.9 °F80 %30.57 inCalm0.01 in
Hourly data recorded from KP60, located miles away from Yellowstone National Park, Wyoming







STORIES FROM OUR PARTNERS